Location: Cybinka
(52.1954°N, 14.8001°E)
Time: 04:56:30
(UTC+01:00)

ISS - Visible Passes

Search period start: 24 November 2017 00:00
Search period end: 04 December 2017 00:00
Orbit: 402 x 407 km, 51.6° (Epoch: 24 November)

Date Brightness Start Highest point End Pass type
(mag) Time Alt. Az. Time Alt. Az. Time Alt. Az.
28 Nov -1.3 18:17:04 10° S 18:17:50 14° S 18:17:50 14° S visible
29 Nov -1.4 17:26:04 10° SSE 17:27:15 12° SE 17:27:45 11° SE visible
29 Nov -0.8 18:59:58 10° SW 19:00:25 13° SW 19:00:25 13° SW visible
30 Nov -2.4 18:07:55 10° SW 18:10:15 28° S 18:10:15 28° S visible
01 Dec -2.0 17:16:06 10° SSW 17:18:36 20° SE 17:20:01 16° ESE visible
01 Dec -1.3 18:51:25 10° WSW 18:52:40 21° WSW 18:52:40 21° WSW visible
02 Dec -3.3 17:59:09 10° SW 18:02:20 46° SSE 18:02:23 46° SSE visible
03 Dec -2.7 17:07:01 10° SW 17:10:01 33° SSE 17:12:04 17° E visible
03 Dec -1.8 18:42:59 10° WSW 18:44:42 28° WSW 18:44:42 28° WSW visible
